Location: Stoke Bliss
(52.2667°N, 2.5167°W)
Time: 17:50:46
(UTC+00:00)

N. Korean satellite - Pass Details

Date: 07 December 2021
Orbit: 446 x 492 km, 97.3° (Epoch: 16 January)

Event Time Altitude Azimuth Distance (km) Brightness Sun altitude
Rises 04:50:56 0° 23° (NNE) 2,469 10.4 -28.4°
Reaches altitude 10° 04:53:14 10° 37° (NE) 1,587 9.6 -28.0°
Maximum altitude 04:56:06 25° 95° (E) 946 8.7 -27.6°
Drops below altitude 10° 04:58:57 10° 152° (SSE) 1,573 9.5 -27.2°
Sets 05:01:12 0° 166° (SSE) 2,441 10.3 -26.8°
